When you browse on this site, cookies collect data to enhance your experience and personalize the content and advertising you see.
Visit our Privacy Policy to learn more. By continuing to use the site, you agree to this use of cookies and data.
  • In Portugal
  • List of Countries
  • For 7 days
  • Water Temperature
  • Weather Map
  • Weather Widgets
  • user-avatar
    Login

    Hourly Weather Prutz

    Today, 1 June, Monday

    Time Temperature Precipitation Wind Pressure Humidity
    00:00 +4°C° 0 mm 1 mps 633 mmHg 91%
    01:00 +4°C° 0 mm 1 mps 633 mmHg 90%
    02:00 +4°C° 0 mm 1 mps 633 mmHg 88%
    03:00 +4°C° 0 mm 1 mps 633 mmHg 87%
    04:00 +4°C° 0 mm 1 mps 633 mmHg 85%
    05:00 +6°C° 0 mm 1 mps 634 mmHg 78%
    06:00 +8°C° 0 mm 1 mps 634 mmHg 70%
    07:00 +9°C° 0 mm 0 mps 635 mmHg 63%
    08:00 +12°C° 0 mm 1 mps 636 mmHg 58%
    09:00 +14°C° 0 mm 1 mps 636 mmHg 53%
    10:00 +15°C° 0 mm 1 mps 636 mmHg 48%
    11:00 +16°C° 0 mm 1 mps 637 mmHg 46%
    12:00 +17°C° 0 mm 2 mps 637 mmHg 45%
    13:00 +18°C° 0 mm 2 mps 637 mmHg 43%
    14:00 +18°C° 0 mm 2 mps 637 mmHg 45%
    15:00 +18°C° 0 mm 2 mps 637 mmHg 48%
    16:00 +18°C° 0 mm 3 mps 636 mmHg 50%
    17:00 +16°C° 0.2 mm 2 mps 636 mmHg 60%
    18:00 +15°C° 0.2 mm 2 mps 635 mmHg 71%
    19:00 +13°C° 0.2 mm 2 mps 635 mmHg 81%
    20:00 +11°C° 0.1 mm 1 mps 635 mmHg 86%
    21:00 +9°C° 0.1 mm 1 mps 634 mmHg 91%
    22:00 +7°C° 0.1 mm 1 mps 634 mmHg 95%
    23:00 +6°C° 0 mm 0 mps 633 mmHg 95%

    Tomorrow, 2 June, Tuesday

    Time Temperature Precipitation Wind Pressure Humidity
    00:00 +5°C° 0 mm 0 mps 633 mmHg 95%
    01:00 +5°C° 0 mm 0 mps 633 mmHg 94%
    02:00 +5°C° 0 mm 0 mps 633 mmHg 93%
    03:00 +5°C° 0 mm 0 mps 632 mmHg 92%
    04:00 +5°C° 0 mm 1 mps 632 mmHg 91%
    05:00 +7°C° 0 mm 1 mps 633 mmHg 87%
    06:00 +10°C° 0 mm 1 mps 634 mmHg 83%
    07:00 +12°C° 0 mm 1 mps 635 mmHg 79%
    08:00 +13°C° 0 mm 1 mps 635 mmHg 70%
    09:00 +14°C° 0 mm 2 mps 635 mmHg 61%
    10:00 +16°C° 0 mm 2 mps 635 mmHg 52%
    11:00 +16°C° 0.1 mm 2 mps 635 mmHg 50%
    12:00 +17°C° 0.1 mm 2 mps 635 mmHg 47%
    13:00 +18°C° 0.1 mm 3 mps 635 mmHg 45%
    14:00 +17°C° 0.3 mm 3 mps 634 mmHg 48%
    15:00 +17°C° 0.3 mm 3 mps 634 mmHg 50%
    16:00 +17°C° 0.3 mm 3 mps 634 mmHg 53%
    17:00 +15°C° 0.4 mm 2 mps 633 mmHg 62%
    18:00 +14°C° 0.4 mm 2 mps 632 mmHg 70%
    19:00 +13°C° 0.4 mm 2 mps 632 mmHg 78%
    20:00 +11°C° 0.1 mm 1 mps 631 mmHg 83%
    21:00 +9°C° 0.1 mm 1 mps 631 mmHg 87%
    22:00 +6°C° 0.1 mm 0 mps 630 mmHg 92%
    23:00 +5°C° 0 mm 0 mps 630 mmHg 91%

    Day after tomorrow, 3 June, Wednesday

    Time Temperature Precipitation Wind Pressure Humidity
    00:00 +6°C° 0 mm 1 mps 629 mmHg 90%
    01:00 +6°C° 0 mm 1 mps 629 mmHg 89%
    02:00 +6°C° 0 mm 1 mps 629 mmHg 88%
    03:00 +6°C° 0 mm 1 mps 629 mmHg 87%
    04:00 +6°C° 0 mm 1 mps 628 mmHg 85%
    05:00 +8°C° 0 mm 1 mps 629 mmHg 78%
    06:00 +9°C° 0 mm 0 mps 629 mmHg 72%
    07:00 +11°C° 0 mm 0 mps 630 mmHg 65%
    08:00 +13°C° 0 mm 0 mps 630 mmHg 56%
    09:00 +15°C° 0 mm 0 mps 631 mmHg 47%
    10:00 +19°C° 0 mm 1 mps 631 mmHg 37%
    11:00 +19°C° 0 mm 1 mps 631 mmHg 35%
    12:00 +20°C° 0 mm 1 mps 631 mmHg 33%
    13:00 +21°C° 0 mm 1 mps 630 mmHg 31%
    14:00 +20°C° 0.1 mm 1 mps 630 mmHg 35%
    15:00 +19°C° 0.1 mm 2 mps 629 mmHg 38%
    16:00 +18°C° 0.1 mm 2 mps 629 mmHg 41%
    17:00 +17°C° 0.3 mm 2 mps 628 mmHg 52%
    18:00 +15°C° 0.3 mm 1 mps 627 mmHg 63%
    19:00 +14°C° 0.3 mm 1 mps 627 mmHg 74%
    20:00 +13°C° 0.5 mm 1 mps 627 mmHg 79%
    21:00 +12°C° 0.5 mm 1 mps 627 mmHg 84%
    22:00 +11°C° 0.5 mm 1 mps 626 mmHg 88%
    23:00 +10°C° 0.1 mm 1 mps 626 mmHg 90%

    4 June, Thursday

    Time Temperature Precipitation Wind Pressure Humidity
    00:00 +9°C° 0.1 mm 2 mps 625 mmHg 91%
    01:00 +8°C° 0.1 mm 2 mps 625 mmHg 92%
    02:00 +8°C° 0 mm 2 mps 625 mmHg 92%
    03:00 +8°C° 0 mm 2 mps 624 mmHg 92%
    04:00 +8°C° 0 mm 2 mps 624 mmHg 93%
    05:00 +8°C° 0.2 mm 2 mps 624 mmHg 91%
    06:00 +10°C° 0.2 mm 1 mps 624 mmHg 90%
    07:00 +11°C° 0.2 mm 1 mps 624 mmHg 89%
    08:00 +11°C° 0.2 mm 1 mps 624 mmHg 88%
    09:00 +11°C° 0.2 mm 1 mps 624 mmHg 87%
    10:00 +12°C° 0.2 mm 1 mps 624 mmHg 87%
    11:00 +12°C° 0.2 mm 1 mps 624 mmHg 87%
    12:00 +12°C° 0.2 mm 2 mps 623 mmHg 86%
    13:00 +12°C° 0.2 mm 2 mps 623 mmHg 86%
    14:00 +12°C° 0.7 mm 2 mps 623 mmHg 88%
    15:00 +12°C° 0.7 mm 2 mps 623 mmHg 89%
    16:00 +10°C° 0.7 mm 2 mps 623 mmHg 91%
    17:00 +10°C° 2.3 mm 2 mps 622 mmHg 93%
    18:00 +9°C° 2.3 mm 2 mps 622 mmHg 95%
    19:00 +9°C° 2.3 mm 1 mps 622 mmHg 97%
    20:00 +8°C° 3.1 mm 1 mps 621 mmHg 97%
    21:00 +7°C° 3.1 mm 1 mps 621 mmHg 98%
    22:00 +6°C° 3.1 mm 1 mps 621 mmHg 98%
    23:00 +6°C° 2.2 mm 1 mps 620 mmHg 98%

    5 June, Friday

    Time Temperature Precipitation Wind Pressure Humidity
    00:00 +6°C° 2.2 mm 1 mps 620 mmHg 98%
    01:00 +6°C° 2.2 mm 1 mps 620 mmHg 98%
    02:00 +6°C° 2.3 mm 1 mps 620 mmHg 98%
    03:00 +5°C° 2.3 mm 1 mps 620 mmHg 98%
    04:00 +5°C° 2.3 mm 1 mps 620 mmHg 98%
    05:00 +5°C° 1.5 mm 1 mps 620 mmHg 98%
    06:00 +4°C° 1.5 mm 2 mps 620 mmHg 98%
    07:00 +4°C° 1.5 mm 2 mps 621 mmHg 99%
    08:00 +4°C° 0.8 mm 2 mps 621 mmHg 98%
    09:00 +4°C° 0.8 mm 2 mps 621 mmHg 98%
    10:00 +4°C° 0.8 mm 2 mps 622 mmHg 98%
    11:00 +4°C° 0.3 mm 2 mps 622 mmHg 96%
    12:00 +4°C° 0.3 mm 2 mps 622 mmHg 95%
    13:00 +5°C° 0.3 mm 2 mps 623 mmHg 93%
    14:00 +5°C° 0.3 mm 2 mps 623 mmHg 90%
    15:00 +6°C° 0.3 mm 2 mps 624 mmHg 86%
    16:00 +6°C° 0.3 mm 2 mps 624 mmHg 82%
    17:00 +5°C° 0.3 mm 2 mps 624 mmHg 85%
    18:00 +5°C° 0.3 mm 2 mps 624 mmHg 88%
    19:00 +4°C° 0.3 mm 2 mps 625 mmHg 90%
    20:00 +4°C° 0.1 mm 1 mps 625 mmHg 91%
    21:00 +3°C° 0.1 mm 1 mps 626 mmHg 92%
    22:00 +2°C° 0.1 mm 1 mps 626 mmHg 93%
    23:00 +2°C° 0.1 mm 1 mps 626 mmHg 92%

    6 June, Saturday

    Time Temperature Precipitation Wind Pressure Humidity
    00:00 +1°C° 0.1 mm 2 mps 626 mmHg 91%
    01:00 +1°C° 0.1 mm 2 mps 627 mmHg 90%
    02:00 +1°C° 0 mm 2 mps 627 mmHg 87%
    03:00 -1°C° 0 mm 2 mps 627 mmHg 85%
    04:00 -1°C° 0 mm 2 mps 627 mmHg 82%
    05:00 +2°C° 0 mm 2 mps 627 mmHg 82%
    06:00 +5°C° 0 mm 1 mps 628 mmHg 81%
    07:00 +7°C° 0 mm 1 mps 629 mmHg 81%
    08:00 +9°C° 0 mm 1 mps 629 mmHg 77%
    09:00 +10°C° 0 mm 1 mps 630 mmHg 73%
    10:00 +12°C° 0 mm 1 mps 630 mmHg 69%
    11:00 +13°C° 0 mm 2 mps 630 mmHg 67%
    12:00 +14°C° 0 mm 2 mps 630 mmHg 65%
    13:00 +15°C° 0 mm 2 mps 630 mmHg 63%
    14:00 +15°C° 0 mm 2 mps 630 mmHg 63%
    15:00 +15°C° 0 mm 2 mps 630 mmHg 62%
    16:00 +15°C° 0 mm 2 mps 630 mmHg 62%
    17:00 +14°C° 0.1 mm 2 mps 630 mmHg 69%
    18:00 +13°C° 0.1 mm 2 mps 630 mmHg 76%
    19:00 +12°C° 0.1 mm 2 mps 630 mmHg 83%
    20:00 +9°C° 0 mm 2 mps 629 mmHg 86%
    21:00 +8°C° 0 mm 2 mps 629 mmHg 89%
    22:00 +7°C° 0 mm 2 mps 629 mmHg 91%
    23:00 +6°C° 0 mm 2 mps 629 mmHg 92%
    Show more